Find Starlink 4784

NORAD ID: 53839 Int'l Des: 2022-114 Owner: SPXS Country: US Constellation: starlink operational
LEOCIRCULAR

Live Position

Loading 3D Globe...

About Starlink 4784

Description loading...

Upcoming Passes

Passes for default location (London). Set your location on the main map for personalized predictions.

Altitude History

Loading altitude history...

Two-Line Element Set

1 53839U 22114X 26105.75441720 -.00000275 00000-0 78299-6 0 9998
2 53839 53.2167 127.9777 0001303 85.1549 274.9592 15.08837101198564
Epoch: Apr 15, 2026 • Age: 8 hours

Current Status

Altitude 543.1 km
Velocity 7.60 km/s
Sub-Earth Point 42.53°N, 69.41°W
Launch Date Sep 19, 2022
Age 3.5 years
Type internet

Technical Details

Classification Payload
Mass 305.00 kg
Dry Mass 290.00 kg
Total Mass 305.00 kg
Length 0.20 m
Diameter 2.80 m
Span 9.00 m
Shape Box + pan
Manufacturer SPXS
Bus Type Starlink
Phase Status In Orbit
Owner/State SPXS/US

Most Searched